TimeJST,TemperatureF,Dew PointF,Humidity,Sea Level PressureIn,VisibilityMPH,Wind Direction,Wind SpeedMPH,Gust SpeedMPH,PrecipitationIn,Events,Conditions,WindDirDegrees,DateUTC
12:00 AM,77.0,68.0,74,29.83,6.2,WSW,11.5,-,N/A,,Partly Cloudy,250,2013-10-11 15:00:00
12:30 AM,75.2,66.2,73,29.83,6.2,WSW,10.4,-,N/A,,Partly Cloudy,240,2013-10-11 15:30:00
1:00 AM,77.0,68.0,74,29.86,6.2,WSW,10.4,-,N/A,,Scattered Clouds,240,2013-10-11 16:00:00
1:30 AM,75.2,64.4,69,29.86,6.2,WSW,12.7,-,N/A,,Scattered Clouds,250,2013-10-11 16:30:00
2:00 AM,75.2,64.4,69,29.86,6.2,West,10.4,-,N/A,,Scattered Clouds,280,2013-10-11 17:00:00
2:30 AM,75.2,60.8,61,29.86,6.2,WNW,10.4,-,N/A,,Mostly Cloudy,290,2013-10-11 17:30:00
3:00 AM,75.2,55.4,50,29.86,5.6,WNW,11.5,-,N/A,,Mostly Cloudy,290,2013-10-11 18:00:00
3:30 AM,75.2,55.4,50,29.86,5.6,WNW,13.8,-,N/A,,Mostly Cloudy,300,2013-10-11 18:30:00
4:00 AM,75.2,55.4,50,29.86,5.6,WNW,15.0,-,N/A,,Mostly Cloudy,300,2013-10-11 19:00:00
4:30 AM,73.4,53.6,50,29.86,5.6,WNW,16.1,-,N/A,,Mostly Cloudy,300,2013-10-11 19:30:00
5:00 AM,73.4,55.4,53,29.89,5.0,WNW,17.3,-,N/A,,Scattered Clouds,290,2013-10-11 20:00:00
5:30 AM,73.4,53.6,50,29.89,5.0,WNW,12.7,-,N/A,,Scattered Clouds,290,2013-10-11 20:30:00
6:00 AM,73.4,51.8,47,29.89,5.0,WNW,12.7,-,N/A,,Partly Cloudy,290,2013-10-11 21:00:00
6:30 AM,73.4,50.0,44,29.92,5.0,West,11.5,-,N/A,,Partly Cloudy,280,2013-10-11 21:30:00
7:00 AM,73.4,51.8,47,29.92,5.0,WNW,10.4,-,N/A,,Partly Cloudy,290,2013-10-11 22:00:00
7:30 AM,73.4,53.6,50,29.92,3.7,WNW,9.2,-,N/A,,Haze,300,2013-10-11 22:30:00
8:00 AM,75.2,53.6,47,29.95,3.7,WNW,11.5,-,N/A,,Haze,290,2013-10-11 23:00:00
8:30 AM,75.2,53.6,47,29.95,5.0,WNW,12.7,-,N/A,,Partly Cloudy,290,2013-10-11 23:30:00
9:00 AM,73.4,53.6,50,29.95,5.0,WNW,16.1,-,N/A,,Scattered Clouds,300,2013-10-12 00:00:00
9:30 AM,77.0,53.6,44,29.95,5.0,WNW,17.3,-,N/A,,Partly Cloudy,300,2013-10-12 00:30:00
10:00 AM,75.2,55.4,50,29.95,5.6,WNW,20.7,-,N/A,,Partly Cloudy,290,2013-10-12 01:00:00
10:04 AM,77.0,55.4,47,29.95,5.6,WNW,20.7,34.5,N/A,,Partly Cloudy,290,2013-10-12 01:04:00
10:30 AM,75.2,53.6,47,29.95,6.2,WNW,19.6,-,N/A,,Partly Cloudy,290,2013-10-12 01:30:00
10:40 AM,77.0,53.6,44,29.95,6.2,WNW,18.4,29.9,N/A,,Partly Cloudy,290,2013-10-12 01:40:00
11:00 AM,77.0,55.4,47,29.95,6.2,NW,18.4,29.9,N/A,,Partly Cloudy,310,2013-10-12 02:00:00
11:30 AM,77.0,50.0,39,29.95,6.2,WNW,17.3,-,N/A,,Partly Cloudy,300,2013-10-12 02:30:00
12:00 PM,77.0,50.0,39,29.95,6.2,WNW,15.0,-,N/A,,Partly Cloudy,290,2013-10-12 03:00:00
12:30 PM,77.0,50.0,39,29.92,6.2,WNW,12.7,-,N/A,,Partly Cloudy,290,2013-10-12 03:30:00
1:00 PM,75.2,48.2,38,29.92,6.2,West,8.1,-,N/A,,Partly Cloudy,260,2013-10-12 04:00:00
1:30 PM,77.0,48.2,36,29.92,6.2,WNW,11.5,-,N/A,,Partly Cloudy,290,2013-10-12 04:30:00
2:00 PM,77.0,50.0,39,29.89,6.2,WNW,17.3,-,N/A,,Partly Cloudy,290,2013-10-12 05:00:00
2:30 PM,77.0,50.0,39,29.92,6.2,WNW,16.1,-,N/A,,Partly Cloudy,290,2013-10-12 05:30:00
3:00 PM,77.0,50.0,39,29.89,6.2,WNW,15.0,-,N/A,,Partly Cloudy,290,2013-10-12 06:00:00
3:30 PM,77.0,48.2,36,29.92,6.2,WNW,16.1,-,N/A,,Partly Cloudy,290,2013-10-12 06:30:00
4:00 PM,77.0,46.4,34,29.92,6.2,WNW,18.4,-,N/A,,Partly Cloudy,300,2013-10-12 07:00:00
4:30 PM,77.0,44.6,32,29.92,6.2,NW,17.3,-,N/A,,Partly Cloudy,310,2013-10-12 07:30:00
5:00 PM,75.2,42.8,31,29.92,6.2,NNW,15.0,-,N/A,,Partly Cloudy,330,2013-10-12 08:00:00
5:30 PM,73.4,39.2,29,29.95,6.2,North,19.6,-,N/A,,Partly Cloudy,350,2013-10-12 08:30:00
6:00 PM,71.6,42.8,35,29.95,6.2,North,18.4,-,N/A,,Partly Cloudy,350,2013-10-12 09:00:00
6:30 PM,69.8,42.8,38,29.98,6.2,North,23.0,-,N/A,,Partly Cloudy,350,2013-10-12 09:30:00
7:00 PM,69.8,41.0,35,30.01,6.2,North,17.3,-,N/A,,Partly Cloudy,360,2013-10-12 10:00:00
7:30 PM,69.8,42.8,38,30.01,6.2,North,19.6,-,N/A,,Partly Cloudy,350,2013-10-12 10:30:00
8:00 PM,69.8,44.6,40,30.01,6.2,North,16.1,-,N/A,,Partly Cloudy,350,2013-10-12 11:00:00
8:30 PM,68.0,41.0,37,30.04,6.2,North,18.4,-,N/A,,Partly Cloudy,350,2013-10-12 11:30:00
9:00 PM,68.0,41.0,37,30.04,6.2,North,11.5,-,N/A,,Partly Cloudy,350,2013-10-12 12:00:00
9:30 PM,68.0,41.0,37,30.04,6.2,North,16.1,-,N/A,,Partly Cloudy,360,2013-10-12 12:30:00
10:00 PM,68.0,41.0,37,30.04,6.2,North,13.8,-,N/A,,Partly Cloudy,350,2013-10-12 13:00:00
10:30 PM,68.0,41.0,37,30.04,6.2,North,13.8,-,N/A,,Partly Cloudy,350,2013-10-12 13:30:00
11:00 PM,68.0,42.8,40,30.04,6.2,NNW,13.8,-,N/A,,Partly Cloudy,340,2013-10-12 14:00:00
11:30 PM,66.2,42.8,43,30.04,6.2,North,10.4,-,N/A,,Partly Cloudy,350,2013-10-12 14:30:00